This is the latest recevied weather packets stored in our database for station/object N7SHZ. If no packets are shown the sender has not sent any weather packets the latest 10 day(s).
| Time | Temp. | Humidity | Pressure | Rain* | Wind** | Luminosity | Snow |
|---|---|---|---|---|---|---|---|
| 1777528758 | -1.11° C | 85% | 1036.9 hPa | - | - | 0 W/m² | - |
| 1777528456 | -1.11° C | 86% | 1036.9 hPa | - | - | 0 W/m² | - |
| 1777528155 | -1.11° C | 87% | 1036.7 hPa | - | - | 0 W/m² | - |
| 1777527851 | -1.11° C | 88% | 1036.9 hPa | - | - | 0 W/m² | - |
| 1777527546 | -1.11° C | 89% | 1036.7 hPa | - | - | 0 W/m² | - |
| 1777527242 | -1.67° C | 90% | 1036.7 hPa | - | - | 0 W/m² | - |
| 1777526937 | -1.11° C | 89% | 1037.1 hPa | - | - | 0 W/m² | - |
| 1777526633 | -1.11° C | 87% | 1037 hPa | - | - | 0 W/m² | - |
| 1777526328 | -1.11° C | 88% | 1037 hPa | - | - | 0 W/m² | - |
| 1777526024 | -1.11° C | 87% | 1037 hPa | - | - | 0 W/m² | - |
| 1777525721 | -0.56° C | 83% | 1037.4 hPa | - | - | 0 W/m² | - |
| 1777525418 | 0° C | 77% | 1037 hPa | - | - | 0 W/m² | - |
| 1777525114 | 0° C | 76% | 1037.4 hPa | - | - | 0 W/m² | - |
| 1777524811 | 0° C | 76% | 1037.3 hPa | - | - | 0 W/m² | - |
| 1777524509 | 0° C | 78% | 1037.3 hPa | - | - | 0 W/m² | - |
| 1777524206 | 0° C | 79% | 1037 hPa | - | - | 0 W/m² | - |
| 1777523901 | 0° C | 79% | 1037.4 hPa | - | - | 0 W/m² | - |
| 1777523599 | 0° C | 79% | 1037.3 hPa | - | - | 0 W/m² | - |
| 1777523295 | 0° C | 79% | 1037.4 hPa | - | - | 0 W/m² | - |
| 1777522990 | 0° C | 77% | 1037.3 hPa | - | - | 0 W/m² | - |
| 1777522689 | 0° C | 79% | 1037.3 hPa | - | - | 0 W/m² | - |
| 1777522384 | 0° C | 79% | 1037.3 hPa | - | - | 0 W/m² | - |
| 1777522082 | 0° C | 79% | 1037.4 hPa | - | - | 0 W/m² | - |
| 1777521778 | 0° C | 79% | 1037.4 hPa | - | - | 0 W/m² | - |
| 1777521475 | 0° C | 79% | 1037.3 hPa | - | - | 0 W/m² | - |
* Rain since midnight (hover to see other rain measurements)
** Current wind speed in m/s (hover to see current wind gust speed)